, AK

(GMT )
Cape Lisburne

Weather History for PALU - January, 2014

Change the Weather History Date:

Saturday, January 25, 2014

  Actual Average Record
Temperature  
Mean Temperature 29 °F -  
Max Temperature 35 °F -1 °F 35 °F (2014)
Min Temperature 23 °F -10 °F -36 °F (2008)
Degree Days  
Heating Degree Days 36    
Moisture  
Dew Point 24 °F    
Average Humidity 77    
Maximum Humidity 94    
Minimum Humidity 69    
Precipitation  
Precipitation 0.00 in - - ()
Snow  
Snow 0.00 in - - ()
Snow Depth 4.00 in    
Sea Level Pressure  
Sea Level Pressure 29.91 in    
Wind  
Wind Speed 20 mph (South)    
Max Wind Speed 30 mph    
Max Gust Speed 43 mph    
Visibility 10 miles    
Events Rain , Snow    
Averages and records for this station are not official NWS values.
T = Trace of Precipitation, MM = Missing Value Source: NWS Daily Summary

Daily Weather History Graph

Daily Weather History Graph

Search for Another Location

Airport or City:

Trip Planner

Search our weather history database for the weather conditions in past years. The results will help you decide how hot, cold, wet, or windy it might be!

Date:

Astronomy

Jan. 25, 2014 Rise Set
Actual Time 12:05 PM AKST 4:29 PM AKST
Civil Twilight 10:37 AM AKST 5:57 PM AKST
Nautical Twilight 9:20 AM AKST 7:14 PM AKST
Astronomical Twilight 8:11 AM AKST 8:23 PM AKST
Moon 6:42 AM AKST (1/25) 11:42 AM AKST (1/25)
Length of Visible Light 7h 19m
Length of Day
4h 24m
Waning Crescent, 32% of the Moon is Illuminated
Jan 25
Waning Crescent
Jan 30
New
Feb 6
First Quarter
Feb 14
Full
Feb 22
Last Quarter

Hourly Weather History & Observations

Time (AKST) Temp. Windchill Dew Point Humidity Pressure Visibility Wind Dir Wind Speed Gust Speed Precip Events Conditions
12:15 AM 33.8 °F 22.2 °F 28.4 °F 81% 29.78 in 10.0 mi South 20.7 mph 29.9 mph N/A   Mostly Cloudy
12:35 AM 35.6 °F 24.5 °F 28.4 °F 75% 29.79 in 10.0 mi South 20.7 mph 34.5 mph N/A   Mostly Cloudy
12:55 AM 35.4 °F 24.9 °F 27.5 °F 73% 29.79 in 10.0 mi South 18.4 mph 36.8 mph N/A   Mostly Cloudy
1:55 AM 34.5 °F 22.3 °F 27.3 °F 75% 29.81 in 10.0 mi South 24.2 mph 35.7 mph N/A   Mostly Cloudy
2:35 AM 33.8 °F 20.5 °F 26.6 °F 75% 29.82 in 10.0 mi South 27.6 mph 39.1 mph N/A Rain Light Rain Showers
2:55 AM 33.8 °F 21.0 °F 26.6 °F 75% 29.82 in 10.0 mi South 25.3 mph 38.0 mph N/A   Mostly Cloudy
3:55 AM 33.4 °F 21.7 °F 26.2 °F 75% 29.83 in 10.0 mi South 20.7 mph 33.4 mph N/A   Mostly Cloudy
4:35 AM 32.0 °F 19.2 °F 26.6 °F 80% 29.84 in 10.0 mi South 23.0 mph 35.7 mph N/A   Mostly Cloudy
4:55 AM 32.5 °F 20.2 °F 25.9 °F 76% 29.84 in 10.0 mi South 21.9 mph 32.2 mph N/A   Mostly Cloudy
5:55 AM 32.7 °F 20.1 °F 25.7 °F 75% 29.86 in 10.0 mi South 23.0 mph 34.5 mph N/A   Mostly Cloudy
6:55 AM 32.4 °F 20.0 °F 25.5 °F 76% 29.86 in 10.0 mi SSE 21.9 mph 36.8 mph N/A   Overcast
7:09 AM 32.0 °F 18.9 °F 26.6 °F 80% 29.87 in 10.0 mi SSE 24.2 mph 36.8 mph N/A   Overcast
7:55 AM 32.0 °F 19.5 °F 24.8 °F 75% 29.87 in 10.0 mi South 21.9 mph 35.7 mph N/A   Mostly Cloudy
8:28 AM 32.0 °F 18.9 °F 24.8 °F 75% 29.89 in 10.0 mi South 24.2 mph 39.1 mph N/A   Mostly Cloudy
8:41 AM 32.0 °F 19.5 °F 24.8 °F 75% 29.89 in 10.0 mi SSE 21.9 mph 35.7 mph N/A   Light Drizzle
8:55 AM 32.0 °F 20.1 °F 24.8 °F 75% 29.91 in 10.0 mi South 19.6 mph 28.8 mph N/A Rain Light Rain Showers
9:55 AM 31.1 °F 19.7 °F 25.0 °F 78% 29.92 in 10.0 mi SSE 17.3 mph 42.6 mph N/A   Mostly Cloudy
10:35 AM 30.2 °F 15.9 °F 24.8 °F 80% 29.93 in 10.0 mi South 26.5 mph 34.5 mph N/A Snow Light Snow Showers
10:55 AM 32.0 °F 19.2 °F 24.8 °F 75% 29.93 in 10.0 mi South 23.0 mph 36.8 mph N/A   Overcast
11:55 AM 30.6 °F 15.7 °F 23.9 °F 76% 29.94 in 10.0 mi South 29.9 mph 42.6 mph N/A   Partly Cloudy
12:55 PM 30.4 °F 15.9 °F 23.5 °F 76% 29.96 in 10.0 mi South 27.6 mph 38.0 mph N/A   Partly Cloudy
1:55 PM 31.5 °F 17.9 °F 22.3 °F 69% 29.97 in 10.0 mi South 25.3 mph 33.4 mph N/A   Scattered Clouds
2:55 PM 30.4 °F 19.5 °F 23.0 °F 74% 29.98 in 10.0 mi SSW 15.0 mph 24.2 mph N/A   Clear
3:55 PM 29.8 °F 23.0 °F 22.5 °F 74% 29.99 in 10.0 mi SSW 6.9 mph - N/A   Clear
4:55 PM 29.8 °F 20.3 °F 22.1 °F 73% 29.99 in 10.0 mi SSW 11.5 mph - N/A   Mostly Cloudy
5:55 PM 28.0 °F 20.0 °F 20.8 °F 74% 29.99 in 10.0 mi SE 8.1 mph - N/A   Mostly Cloudy
6:55 PM 25.9 °F - 19.6 °F 77% 29.99 in 10.0 mi Variable 2.3 mph - N/A   Mostly Cloudy
7:55 PM 26.8 °F 20.2 °F 19.9 °F 75% 30.00 in 10.0 mi SSW 5.8 mph - N/A   Clear
8:55 PM 28.0 °F 18.1 °F 20.5 °F 73% 29.99 in 10.0 mi ESE 11.5 mph - N/A   Mostly Cloudy
9:55 PM 23.7 °F 16.6 °F 20.8 °F 89% 29.98 in 10.0 mi Variable 5.8 mph - N/A   Mostly Cloudy
10:55 PM 25.2 °F 18.3 °F 23.5 °F 94% 29.97 in 10.0 mi ENE 5.8 mph - N/A   Partly Cloudy
11:55 PM 26.1 °F 15.6 °F 22.8 °F 88% 29.96 in 10.0 mi SE 11.5 mph - N/A   Partly Cloudy